Other Public Products
Issued by NWS Grand Forks, ND

Home | Current Version | Previous Version | Graphics & Text | Print | Product List | Glossary On
Versions: 1 2 3 4 5 6 7 8 9 10 11 12 13 14 15 16 17 18 19 20 21 22 23 24 25 26 27 28 29 30 31 32 33 34 35 36 37 38 39 40 41 42 43 44 45 46 47 48 49 50
000
FPUS83 KFGF 012210
OPUFGF
PRAIRIE TO PINES WEATHER ROUNDUP
NATIONAL WEATHER SERVICE EASTERN NORTH DAKOTA/GRAND FORKS ND
500 PM CDT WED APR 01 2015

 **SATELLITE DATA USED TO AUGMENT SKY COVER AT AUTOMATED STATIONS**
 *****  WEATHER ACROSS EASTERN NORTH DAKOTA  *****

CITY           SKY/WX    TMP DP  RH WIND       PRES   REMARKS
GRAND FORKS    MOSUNNY   63  44  50 NW23G33   29.40R
GRAND FORKS AF MOSUNNY   60  44  54 NW20G32   29.42R
GRAND CITY NWS   N/A     61 N/A N/A N31         N/A
BUXTON         NOT AVBL
DEVILS LAKE    CLOUDY    55  39  54 NW33G39   29.47R
FARGO          MOSUNNY   67  39  35 NW26G36   29.42R
WAHPETON ARPT  MOCLDY    64  36  34 NW20G28   29.48R
$$

 *****  WEATHER ACROSS CENTRAL AND WESTERN NORTH DAKOTA  *****

CITY           SKY/WX    TMP DP  RH WIND       PRES   REMARKS
JAMESTOWN      PTSUNNY   64  32  30 NW22G39   29.49R
BISMARCK       PTSUNNY   60  29  30 NW20G36   29.61R
MINOT          LGT RAIN  56  28  34 W31G43    29.57R
MINOT AFB      MOSUNNY   55  32  41 NW29G37   29.54R
GARRISON         N/A     57  27  31 NW36G47   29.59R
WILLISTON      PTSUNNY   55  22  27 NW25G36   29.66R
DICKINSON      MOSUNNY   55  22  27 NW32G41   29.66R
HETTINGER      MOSUNNY   56  19  23 W30G40    29.70R
$$

 *****  OTHER OBSERVATIONS NORTHEAST NORTH DAKOTA  *****

CITY           SKY/WX    TMP DP  RH WIND       PRES   REMARKS
WALHALLA         N/A     57  46  67 W17G23    29.39R
LANGDON        NOT AVBL
CAVALIER       FAIR      57  43  58 NW15      29.40R
GRAFTON        NOT AVBL
CANDO          NOT AVBL
FORT TOTTEN    NOT AVBL
ROLLA          CLOUDY    50  39  66 W23G30    29.49R
RUGBY          NOT AVBL
 ***** THE ABOVE OBSERVATIONS ARE NON NWS ARE NOT QUALITY
        CONTROLLED AND MAY MIS-REPORT RAIN FOR SNOW...
$$

 *****  OTHER OBSERVATIONS SOUTHEAST NORTH DAKOTA *****

CITY           SKY/WX    TMP DP  RH WIND       PRES   REMARKS
COOPERSTOWN    NOT AVBL
VALLEY CITY    FAIR      63  37  39 W29G40    29.48R
OAKES            N/A     64  37  36 NW26G38   29.52R
GWINNER        CLEAR     66  39  37 W25G33      N/A
SHEYENNE NWR     N/A     67  42  39 NW18      29.95S
BUFFALO        NOT AVBL
WYNDMERE       NOT AVBL
 ***** THE ABOVE OBSERVATIONS ARE NON NWS ARE NOT QUALITY
       CONTROLLED AND MAY MIS-REPORT RAIN FOR SNOW...
$$

  *****  WEATHER ACROSS NORTHERN MINNESOTA  *****

CITY           SKY/WX    TMP DP  RH WIND       PRES   REMARKS
FLAG ISLAND    PTSUNNY   43  34  70 SE7       29.33F
WARROAD        NOT AVBL
ROSEAU         PTSUNNY   68  45  42 SW13      29.32S
HALLOCK        PTSUNNY   59  41  51 W14G24    29.38R
THF RVR FALLS  CLOUDY    63  39  42 W22       29.37R
HALSTAD        NOT AVBL
FOSSTON        CLOUDY    72  37  28 W20G26    29.36R
BAUDETTE       MOSUNNY   62  39  42 S10       29.34F
WASKISH        PTSUNNY   66  41  39 S5        29.35F
CROOKSTON      PTSUNNY   64  39  39 NW28G38   29.40R
$$
  *****  WEATHER ACROSS CENTRAL AND WEST MINNESOTA  *****

CITY           SKY/WX    TMP DP  RH WIND       PRES   REMARKS
BEMIDJI        CLOUDY    68  41  37 SW14G21   29.36S
PARK RAPIDS    CLOUDY    70  37  29 SW24      29.39S
WADENA         CLOUDY    66  43  42 SW18G31   29.42R
DETROIT LAKES  CLOUDY    68  36  30 W17       29.42R
MOORHEAD       MOSUNNY   66  34  30 NW22G35   29.44R
FERGUS FALLS   CLOUDY    68  34  28 W21G28    29.46R
ELBOW LAKE     FAIR      65  39  38 W20       29.46R
MORRIS MN      CLOUDY    66  37  34 W17       29.46R
STAPLES        CLOUDY    70  43  37 SW15G23   29.42R
WHEATON        CLOUDY    64  39  39 W21G26    29.49R
$$
  *****  WEATHER ELSEWHERE ACROSS MINNESOTA  *****

CITY           SKY/WX    TMP DP  RH WIND       PRES   REMARKS
DULUTH         CLOUDY    41  31  67 SE18      29.50F
INTRNTL FALLS  CLOUDY    65  36  34 S6        29.38R
ELY            CLOUDY    48  30  49 SE12      29.49F
CLOQUET        CLOUDY    45  34  65 E9G16     29.49F
BRAINERD       CLOUDY    71  42  35 SW22      29.43S
HIBBING        NOT AVBL
ALEXANDRIA     CLOUDY    68  40  35 W20       29.46R
SAINT CLOUD    CLOUDY    73  47  39 S9        29.43F
MINNEAPOLIS    PTSUNNY   83  35  18 S22G38    29.49S
$$

  *****  WEATHER ACROSS SOUTH DAKOTA  *****

CITY           SKY/WX    TMP DP  RH WIND       PRES   REMARKS
SIOUX FALLS    CLOUDY    76  34  21 W16G26    29.50R
BROOKINGS      CLOUDY    68  34  28 NW17G23   29.53R
WATERTOWN      CLOUDY    63  39  41 NW16      29.53R
HURON          CLOUDY    71  40  32 NW23G33   29.57R
SISSETON         N/A     70  42  36 NW28G35   29.47R
ABERDEEN       MOSUNNY   70  36  28 NW24G32   29.56R
MITCHELL       CLOUDY    69  40  34 NW16      29.58R
PIERRE         SUNNY     67  26  21 NW30G37   29.64R
MOBRIDGE       PTSUNNY   65  26  23 NW23G33   29.61R
RAPID CITY     MOSUNNY   54  26  34 NW37G48   29.75R
$$

  *****  SOME WEATHER IN NEARBY STATES *****

CITY           SKY/WX    TMP DP  RH WIND       PRES   REMARKS
GLASGOW MT     NOT AVBL
GREAT FALLS MT MOSUNNY   50   5  16 W21G36    29.82S
CHEYENNE WY    PTSUNNY   58  24  27 NW22G35   29.78R
SCOTTSBLUFF NE PTSUNNY   66  16  14 W24G33    29.71S
OMAHA NE       MOSUNNY   84  46  26 S33G39    29.57F
DES MOINES IA  MOSUNNY   82  41  23 S29G38    29.67F
DAVENPORT IA   SUNNY     78  30  17 S29G36    29.80F
CHICAGO IL     PTSUNNY   72  35  25 S18       29.88F
EAU CLAIRE WI  PTSUNNY   79  34  19 S17G37    29.57F
LA CROSSE WI   SUNNY     80  33  18 S20G32    29.63F
$$

  *****  SOME NATIONAL WEATHER *****

CITY           SKY/WX    TMP DP  RH WIND       PRES   REMARKS
LA GUARDIA NY  SUNNY     51  17  26 NW10      30.09R
RALEIGH NC     MOSUNNY   65  27  23 CALM      30.14R
ATLANTA GA     PTSUNNY   78  46  32 NW8       30.03S
NEW ORLEANS LA CLOUDY    77  64  64 S8        30.03S
OKLAHOMA CITY  MOSUNNY   80  61  52 S22G30    29.73F
ALBUQUERQUE NM MOSUNNY   74  23  15 W20G29    29.89F
SALT LAKE CITY PTSUNNY   50  14  23 NW10G17   30.05R
LOS ANGELES CA MOSUNNY   67  54  63 W13       29.94F
BOISE ID       SUNNY     51  20  29 NW13G21   30.12F
SEATTLE WA     LGT RAIN  52  34  50 S6        30.26S
$$

*** WEATHER ACROSS MANITOBA...SASKATCHEWAN AND ONTARIO ***
                ***ONTARIO***

CITY           SKY/WX    TMP DP  RH WIND       PRES   REMARKS
GERALDTON      SNOWSHWR  30  28  93 S8        29.79F VSB 1   WCI  23
THUNDER BAY    CLOUDY    34  32  93 E17G24    29.70F WCI  23
SIOUX LOOKOUT  MOSUNNY   46  28  49 S9G23     29.46F
TORONTO        MOSUNNY   43  18  36 SE9       30.13F
BIG TROUT LK   PTSUNNY   43  27  52 E8        29.64F
PICKLE LAKE    FLURRIES  34  27  75 E14G22    29.58F WCI  24
DRYDEN         SUNNY     52  32  46 SE18G24   29.42F
KENORA         PTSUNNY   57  34  41 SE12      29.36R
$$
                *** MANITOBA***

CITY           SKY/WX    TMP DP  RH WIND       PRES   REMARKS
BRANDON        CLOUDY    46  39  76 W26G32    29.47R
DAUPHIN        CLOUDY    45  39  81 NW21G35   29.41R
ISLAND LAKE    CLOUDY    36  34  93 NE14      29.54F
PILOT MOUND      N/A     52  41  66 W20G30      N/A
THE PAS        LGT SNOW  34  32  93 NE3       29.43S
THOMPSON       LGT SNOW  18  14  86 NE20G26   29.67S DRFTSNOWWCI   1
WINNIPEG       PTSUNNY   52  37  58 W20G26    29.37R
LYNN LAKE      FLURRIES  14  10  85 NE14G22   29.73S WCI  -1
CHURCHILL      CRYSTALS   0  -4  85 N13       30.05R WCI -18
GILLAM         CLOUDY    14   7  73 NE14G22   29.81S WCI  -1
$$
                ***SASKATCHEWAN***

CITY           SKY/WX    TMP DP  RH WIND       PRES   REMARKS
ESTEVAN        PTSUNNY   52  25  35 NW25G38   29.59R
KINDERSLEY     NOT AVBL
LLOYDMINSTER   SNOWSHWR  34  32  93 N20G25    29.45R FOG     WCI  22
PRINCE ALBERT  CLOUDY    43  32  65 NW9       29.40S
REGINA         PTSUNNY   48  28  46 W24G32    29.54F


USA.gov is the U.S. government's official web portal to all federal, state and local government web resources and services.